GW3011 Weather Reports


time (UTC)temp
C
wind
direction
speed
KPH
gust
KPH
rain 1hr
cm
rain 24hr
cm
rain mn
cm
humidity
%
barometer
mb
20260905113353 21 166 0.0 0.0 0.00 0.00 0.00 69 1010.2
20260905112848 21 149 0.0 0.0 0.00 0.00 0.00 72 1010.2
20260905112343 21 139 0.0 0.0 0.00 0.00 0.00 72 1010.3
20260905111838 21 134 0.0 0.0 0.00 0.00 0.00 71 1010.1
20260905111333 21 138 0.0 0.0 0.00 0.00 0.00 70 1009.9
20260905110832 22 158 0.0 0.0 0.00 0.00 0.00 71 1009.9
20260905110326 21 184 0.0 0.0 0.00 0.00 0.00 70 1009.8
20260905105822 22 181 0.0 0.0 0.00 0.00 0.00 70 1009.9
20260905105321 21 141 0.0 0.0 0.00 0.00 0.00 73 1009.8
20260905104815 21 142 0.0 0.0 0.00 0.00 0.00 70 1009.6
20260905104312 21 150 0.0 0.0 0.00 0.00 0.00 70 1009.6
20260905103811 21 158 0.0 0.0 0.00 0.00 0.00 70 1009.6
20260905103307 21 139 0.0 0.0 0.00 0.00 0.00 71 1009.6
20260905102803 21 191 0.0 0.0 0.00 0.00 0.00 70 1009.2
20260905102259 21 154 0.0 0.0 0.00 0.00 0.00 72 1009.2
20260905101758 21 182 0.0 0.0 0.00 0.00 0.00 69 1009.3
20260905101257 21 193 0.0 0.0 0.00 0.00 0.00 69 1009.3
20260905100751 21 158 0.0 0.0 0.00 0.00 0.00 69 1009.3
20260905100248 21 204 0.0 0.0 0.00 0.00 0.00 69 1009.6
20260905095742 22 184 0.0 0.0 0.00 0.00 0.00 69 1009.4
20260905095241 22 209 0.0 0.0 0.00 0.00 0.00 69 1009.6
20260905094736 22 162 0.0 0.0 0.00 0.00 0.00 69 1009.5
20260905094232 22 152 0.0 0.0 0.00 0.00 0.00 68 1009.3
20260905093731 22 203 0.0 0.0 0.00 0.00 0.00 68 1009.4
20260905093227 22 176 0.0 0.0 0.00 0.00 0.00 68 1009.3
20260905092722 22 190 0.0 0.0 0.00 0.00 0.00 68 1009.3
20260905092217 22 203 0.0 0.0 0.00 0.00 0.00 68 1009.3
20260905091716 22 185 0.0 0.0 0.00 0.00 0.00 67 1009.2
20260905091212 22 172 0.0 0.0 0.00 0.00 0.00 67 1009.1
20260905090711 22 154 0.0 0.0 0.00 0.00 0.00 69 1009.0
20260905090207 22 157 0.0 0.0 0.00 0.00 0.00 67 1009.3
20260905085706 22 199 0.0 0.0 0.00 0.00 0.00 66 1009.2
20260905085201 22 163 0.0 0.0 0.00 0.00 0.00 67 1009.0
20260905084700 22 210 0.0 0.0 0.00 0.00 0.00 66 1009.2
20260905084149 22 156 0.0 0.0 0.00 0.00 0.00 68 1009.3
20260905083644 22 197 0.0 0.0 0.00 0.00 0.00 65 1009.2
20260905083141 22 138 0.0 0.0 0.00 0.00 0.00 67 1009.1
20260905082637 22 184 0.0 0.0 0.00 0.00 0.00 65 1009.2
20260905082131 22 207 0.0 0.0 0.00 0.00 0.00 65 1009.2
20260905081631 23 218 0.0 0.0 0.00 0.00 0.00 64 1009.4
20260905081126 22 143 0.0 0.0 0.00 0.00 0.00 64 1009.0
20260905080621 22 164 0.0 0.0 0.00 0.00 0.00 64 1009.2
20260905080120 23 215 0.0 0.0 0.00 0.00 0.00 64 1009.0
20260905075619 23 252 0.0 0.0 0.00 0.00 0.00 64 1009.1
20260905075114 23 232 0.0 0.0 0.00 0.00 0.00 64 1009.4
20260905074613 23 226 0.0 0.0 0.00 0.00 0.00 64 1009.3
20260905074109 23 225 0.0 0.0 0.00 0.00 0.00 63 1009.3
20260905073604 23 195 0.0 0.0 0.00 0.00 0.00 62 1009.1
20260905073100 23 197 0.0 0.0 0.00 0.00 0.00 62 1009.2
20260905072559 23 230 0.0 0.0 0.00 0.00 0.00 62 1009.3
20260905072055 23 203 0.0 0.0 0.00 0.00 0.00 62 1009.4
20260905071551 23 203 0.0 0.0 0.00 0.00 0.00 61 1009.1
20260905071046 23 170 0.0 0.0 0.00 0.00 0.00 63 1009.3
20260905070541 23 191 0.0 0.0 0.00 0.00 0.00 61 1009.2
20260905070037 23 194 0.0 0.0 0.00 0.00 0.00 62 1009.3
20260905065535 23 222 0.0 0.0 0.00 0.00 0.00 61 1009.4
20260905065030 23 207 0.0 0.0 0.00 0.00 0.00 62 1009.2
20260905064530 23 194 0.0 0.0 0.00 0.00 0.00 62 1009.4
20260905064026 23 210 0.0 0.0 0.00 0.00 0.00 62 1009.4
20260905063524 23 170 0.0 0.0 0.00 0.00 0.00 62 1009.3
20260905063021 23 194 0.0 0.0 0.00 0.00 0.00 62 1009.3
20260905062520 23 216 0.0 0.0 0.00 0.00 0.00 62 1009.6
20260905062015 23 212 0.0 0.0 0.00 0.00 0.00 62 1009.7
20260905061511 23 232 0.0 0.0 0.00 0.00 0.00 62 1009.5
20260905061009 23 228 0.0 0.0 0.00 0.00 0.00 63 1009.5
20260905060506 23 172 0.0 0.0 0.00 0.00 0.00 63 1009.5
20260905060001 23 151 0.0 0.0 0.00 0.00 0.00 65 1009.4
20260905055459 24 186 0.0 0.0 0.00 0.00 0.00 64 1009.7
20260905054954 24 212 0.0 0.0 0.00 0.00 0.00 62 1009.6
20260905054450 24 243 0.0 0.0 0.00 0.00 0.00 62 1009.8
20260905053945 24 211 0.0 0.0 0.00 0.00 0.00 61 1010.1
20260905053440 24 205 0.0 0.0 0.00 0.00 0.00 62 1009.8
20260905052936 24 230 0.0 0.0 0.00 0.00 0.00 62 1010.2
20260905052435 24 122 0.0 0.0 0.00 0.00 0.00 64 1009.9
20260905051935 24 203 0.0 0.0 0.00 0.00 0.00 63 1010.1
20260905051430 24 212 0.0 0.0 0.00 0.00 0.00 62 1010.1
20260905050928 25 201 0.0 0.0 0.00 0.00 0.00 63 1010.0
20260905050423 24 124 0.0 0.0 0.00 0.00 0.00 64 1010.3
20260905045918 24 184 0.0 0.0 0.00 0.00 0.00 64 1010.3
20260905045408 25 150 0.0 0.0 0.00 0.00 0.00 65 1010.0
20260905044903 25 222 0.0 0.0 0.00 0.00 0.00 63 1010.0
20260905044358 25 184 0.0 0.0 0.00 0.00 0.00 63 1010.4
20260905043857 25 222 0.0 0.0 0.00 0.00 0.00 63 1010.2
20260905043352 25 158 0.0 0.0 0.00 0.00 0.00 64 1010.1
20260905042847 25 178 0.0 0.0 0.00 0.00 0.00 64 1010.1
20260905042347 25 236 0.0 0.0 0.00 0.00 0.00 63 1010.2
20260905041841 25 198 0.0 0.0 0.00 0.00 0.00 63 1010.3
20260905041337 25 229 0.0 0.0 0.00 0.00 0.00 63 1010.5
20260905040832 25 179 0.0 0.0 0.00 0.00 0.00 63 1010.5
20260905040331 25 200 0.0 0.0 0.00 0.00 0.00 63 1010.2
20260905035830 25 176 0.0 0.0 0.00 0.00 0.00 63 1010.4
20260905035326 25 286 0.0 0.0 0.00 0.00 0.00 63 1010.2
20260905034823 25 203 0.0 0.0 0.00 0.00 0.00 63 1010.2
20260905034318 25 211 0.0 0.0 0.00 0.00 0.00 63 1010.3
20260905033816 25 222 0.0 0.0 0.00 0.00 0.00 63 1010.1
20260905033312 25 202 0.0 0.0 0.00 0.00 0.00 63 1010.0
20260905032811 25 199 0.0 0.0 0.00 0.00 0.00 63 1010.0
20260905032307 25 203 0.0 0.0 0.00 0.00 0.00 63 1010.2
20260905031802 25 182 0.0 0.0 0.00 0.00 0.00 63 1010.0
20260905031258 25 224 0.0 0.0 0.00 0.00 0.00 62 1010.0
20260905030753 25 187 0.0 0.0 0.00 0.00 0.00 63 1010.1
20260905030248 25 164 0.0 0.0 0.00 0.00 0.00 63 1010.1
20260905025742 25 144 0.0 0.0 0.00 0.00 0.00 63 1010.3
20260905025238 25 177 0.0 0.0 0.00 0.00 0.00 62 1010.0
20260905024733 25 165 0.0 0.0 0.00 0.00 0.00 64 1010.1
20260905024230 25 187 0.0 0.0 0.00 0.00 0.00 61 1010.3
20260905023729 25 116 0.0 0.0 0.00 0.00 0.00 62 1010.1
20260905023224 25 222 0.0 0.0 0.00 0.00 0.00 61 1010.1
20260905022723 26 206 0.0 0.0 0.00 0.00 0.00 60 1010.0
20260905022219 26 193 0.0 0.0 0.00 0.00 0.00 61 1010.4
20260905021713 26 153 0.0 0.0 0.00 0.00 0.00 62 1010.4
20260905021208 26 197 0.0 0.0 0.00 0.00 0.00 61 1010.3
20260905020703 26 207 0.0 0.0 0.00 0.00 0.00 60 1010.3
20260905020158 26 196 0.0 0.0 0.00 0.00 0.00 60 1010.4
20260905015656 26 225 0.0 0.0 0.00 0.00 0.00 60 1010.4
20260905015145 26 196 0.0 0.0 0.00 0.00 0.00 59 1010.3
20260905014639 26 170 0.0 0.0 0.00 0.00 0.00 61 1010.5
20260905014135 26 168 0.0 0.0 0.00 0.00 0.00 60 1010.2
20260905013631 26 221 0.0 0.0 0.00 0.00 0.00 60 1010.4
20260905013127 26 161 0.0 0.0 0.00 0.00 0.00 60 1010.4
20260905012627 26 171 0.0 0.0 0.00 0.00 0.00 60 1010.4
20260905012123 26 172 0.0 0.0 0.00 0.00 0.00 60 1010.3
20260905011619 26 154 0.0 0.0 0.00 0.00 0.00 61 1010.1
20260905011115 26 194 0.0 0.0 0.00 0.00 0.00 59 1010.4
20260905010614 26 190 0.0 0.0 0.00 0.00 0.00 59 1010.4
20260905010111 26 218 0.0 0.0 0.00 0.00 0.00 59 1010.2
20260905005606 26 141 0.0 0.0 0.00 0.00 0.00 60 1010.0
20260905005101 26 226 0.0 0.0 0.00 0.00 0.00 58 1010.2
20260905004556 26 216 0.0 0.0 0.00 0.00 0.00 57 1010.0
20260905004051 26 212 0.0 0.0 0.00 0.00 0.00 58 1010.2
20260905003547 26 219 0.0 0.0 0.00 0.00 0.00 58 1009.9
20260905003042 26 193 0.0 0.0 0.00 0.00 0.00 59 1009.9
20260905002538 26 167 0.0 0.0 0.00 0.00 0.00 62 1010.0
20260905002037 26 211 0.0 0.0 0.00 0.00 0.00 58 1010.1
20260905001527 27 185 0.0 0.0 0.00 0.00 0.00 58 1010.0
20260905001027 27 173 0.0 0.0 0.00 0.00 0.00 58 1010.0
20260905000522 27 171 0.0 0.0 0.00 0.00 0.00 58 1010.1
20260905000018 27 192 0.0 0.0 0.00 0.00 0.00 57 1010.2
20260904235512 27 160 0.0 0.0 0.00 0.00 0.00 59 1010.0
20260904235006 27 224 0.0 0.0 0.00 0.00 0.00 58 1009.7
20260904234507 27 179 0.0 0.0 0.00 0.00 0.00 58 1009.8
20260904234003 27 186 0.0 0.0 0.00 0.00 0.00 59 1009.9
20260904233458 27 161 0.0 0.0 0.00 0.00 0.00 60 1010.1
20260904232954 27 183 0.0 0.0 0.00 0.00 0.00 58 1010.2
20260904232449 27 154 0.0 0.0 0.00 0.00 0.00 59 1009.8
20260904231941 27 178 0.0 0.0 0.00 0.00 0.00 58 1010.0
20260904231436 27 165 0.0 0.0 0.00 0.00 0.00 59 1010.1
20260904230931 27 200 0.0 0.0 0.00 0.00 0.00 57 1009.8
20260904230429 28 171 0.0 0.0 0.00 0.00 0.00 57 1009.8
20260904225924 28 175 0.0 0.0 0.00 0.00 0.00 57 1009.8
20260904225422 28 163 0.0 0.0 0.00 0.00 0.00 57 1010.0
20260904224917 28 152 0.0 0.0 0.00 0.00 0.00 56 1009.9
20260904224413 29 165 0.0 0.0 0.00 0.00 0.00 55 1009.9
20260904223912 29 208 0.0 0.0 0.00 0.00 0.00 53 1009.7
20260904223411 29 224 0.0 0.0 0.00 0.00 0.00 52 1009.9
20260904222908 28 206 0.0 0.0 0.00 0.00 0.00 53 1009.9
20260904222403 29 213 0.0 0.0 0.00 0.00 0.00 53 1010.0
20260904221903 29 207 0.0 0.0 0.00 0.00 0.00 52 1010.0
20260904221357 30 177 0.0 0.0 0.00 0.00 0.00 52 1009.9
20260904220853 29 176 0.0 0.0 0.00 0.00 0.00 52 1010.0
20260904220352 29 174 0.0 0.0 0.00 0.00 0.00 51 1009.9
20260904215848 30 194 0.0 0.0 0.00 0.00 0.00 51 1010.0
20260904215342 30 184 0.0 0.0 0.00 0.00 0.00 51 1009.6
20260904214838 30 213 0.0 0.0 0.00 0.00 0.00 51 1009.8
20260904214334 30 179 0.0 0.0 0.00 0.00 0.00 49 1009.8
20260904213832 30 171 0.0 0.0 0.00 0.00 0.00 50 1009.6
20260904213327 30 152 0.0 0.0 0.00 0.00 0.00 50 1009.6
20260904212824 30 186 0.0 0.0 0.00 0.00 0.00 51 1009.4
20260904212323 30 162 0.0 0.0 0.00 0.00 0.00 51 1009.5
20260904211819 30 111 0.0 0.0 0.00 0.00 0.00 51 1009.4
20260904211314 30 226 0.0 0.0 0.00 0.00 0.00 51 1009.5
20260904210808 30 155 0.0 0.0 0.00 0.00 0.00 50 1009.4
20260904210302 31 199 0.0 0.0 0.00 0.00 0.00 49 1009.9
20260904205759 30 124 0.0 0.0 0.00 0.00 0.00 50 1009.8
20260904205254 30 176 0.0 0.0 0.00 0.00 0.00 51 1010.0
20260904204751 30 187 0.0 0.0 0.00 0.00 0.00 50 1009.8
20260904204247 30 217 0.0 0.0 0.00 0.00 0.00 51 1009.7
20260904203743 30 163 0.0 0.0 0.00 0.00 0.00 52 1010.1
20260904203239 30 182 0.0 0.0 0.00 0.00 0.00 50 1009.9
20260904202734 30 194 0.0 1.6 0.00 0.00 0.00 49 1009.7
20260904202230 30 203 0.0 0.0 0.00 0.00 0.00 49 1009.9
20260904201725 30 197 0.0 0.0 0.00 0.00 0.00 50 1009.8
20260904201220 30 185 0.0 0.0 0.00 0.00 0.00 51 1010.0
20260904200715 30 135 0.0 0.0 0.00 0.00 0.00 51 1010.0
20260904200209 30 201 0.0 0.0 0.00 0.00 0.00 51 1010.0
20260904195708 31 208 0.0 0.0 0.00 0.00 0.00 49 1010.3
20260904195201 30 181 0.0 0.0 0.00 0.00 0.00 49 1010.3
20260904194701 30 158 0.0 0.0 0.00 0.00 0.00 51 1010.3
20260904194155 30 192 0.0 0.0 0.00 0.00 0.00 52 1010.3
20260904193651 30 217 0.0 0.0 0.00 0.00 0.00 51 1010.3
20260904193148 30 220 0.0 0.0 0.00 0.00 0.00 51 1010.4
20260904192647 30 134 0.0 0.0 0.00 0.00 0.00 51 1010.4
20260904192143 30 186 0.0 0.0 0.00 0.00 0.00 50 1010.4
20260904191639 30 212 0.0 0.0 0.00 0.00 0.00 50 1010.3
20260904191136 30 234 0.0 0.0 0.00 0.00 0.00 50 1010.5
20260904190632 30 205 0.0 0.0 0.00 0.00 0.00 51 1010.5
20260904190127 30 167 0.0 0.0 0.00 0.00 0.00 51 1010.7
20260904185623 30 173 0.0 0.0 0.00 0.00 0.00 51 1010.5
20260904185118 29 208 0.0 0.0 0.00 0.00 0.00 51 1010.7
20260904184617 30 145 0.0 0.0 0.00 0.00 0.00 51 1011.0
20260904184112 30 142 0.0 0.0 0.00 0.00 0.00 51 1010.5
20260904183608 29 215 0.0 0.0 0.00 0.00 0.00 51 1010.6
20260904183103 30 194 0.0 0.0 0.00 0.00 0.00 51 1011.1
20260904182558 30 174 0.0 0.0 0.00 0.00 0.00 50 1010.7
20260904182052 30 155 0.0 0.0 0.00 0.00 0.00 52 1010.7
20260904181549 30 250 0.0 0.0 0.00 0.00 0.00 51 1010.8
20260904181048 30 141 0.0 0.0 0.00 0.00 0.00 51 1010.6
20260904180543 29 189 0.0 0.0 0.00 0.00 0.00 53 1010.5
20260904180038 30 204 0.0 0.0 0.00 0.00 0.00 53 1010.7
20260904175532 29 177 0.0 0.0 0.00 0.00 0.00 54 1010.8
20260904175030 28 198 0.0 0.0 0.00 0.00 0.00 55 1010.8
20260904174526 30 215 0.0 0.0 0.00 0.00 0.00 54 1010.6
20260904174023 30 153 0.0 0.0 0.00 0.00 0.00 53 1010.6
20260904173522 30 190 0.0 0.0 0.00 0.00 0.00 53 1010.6
20260904173018 30 176 0.0 0.0 0.00 0.00 0.00 53 1010.7
20260904172514 30 98 0.0 0.0 0.00 0.00 0.00 53 1010.7
20260904172013 30 177 0.0 0.0 0.00 0.00 0.00 54 1010.7
20260904171508 29 228 0.0 0.0 0.00 0.00 0.00 55 1010.6
20260904171004 28 196 0.0 0.0 0.00 0.00 0.00 57 1010.8
20260904170459 29 184 0.0 0.0 0.00 0.00 0.00 56 1010.8
20260904165954 29 152 0.0 0.0 0.00 0.00 0.00 56 1010.6
20260904165453 28 184 0.0 0.0 0.00 0.00 0.00 57 1010.8
20260904164953 29 192 0.0 0.0 0.00 0.00 0.00 57 1010.7
20260904164448 30 229 0.0 0.0 0.00 0.00 0.00 52 1010.7
20260904163944 29 223 0.0 0.0 0.00 0.00 0.00 56 1010.8
20260904163438 28 186 0.0 0.0 0.00 0.00 0.00 57 1010.9
20260904162938 28 197 0.0 0.0 0.00 0.00 0.00 57 1010.8
20260904162433 29 227 0.0 0.0 0.00 0.00 0.00 56 1010.7
20260904161928 28 166 0.0 0.0 0.00 0.00 0.00 58 1010.7
20260904161423 29 208 0.0 0.0 0.00 0.00 0.00 56 1010.6
20260904160920 29 220 0.0 0.0 0.00 0.00 0.00 57 1010.9
20260904160414 30 197 0.0 0.0 0.00 0.00 0.00 56 1010.7
20260904155909 29 203 0.0 0.0 0.00 0.00 0.00 56 1010.8
20260904155404 29 228 0.0 0.0 0.00 0.00 0.00 57 1011.0
20260904154902 28 230 0.0 0.0 0.00 0.00 0.00 57 1010.9
20260904154357 29 215 0.0 0.0 0.00 0.00 0.00 56 1011.0
20260904153853 29 176 0.0 0.0 0.00 0.00 0.00 57 1011.0
20260904153348 29 199 0.0 0.0 0.00 0.00 0.00 57 1011.1
20260904152845 29 192 0.0 0.0 0.00 0.00 0.00 58 1011.1
20260904152344 28 226 0.0 0.0 0.00 0.00 0.00 58 1011.3
20260904151839 28 201 0.0 0.0 0.00 0.00 0.00 57 1011.2
20260904151338 29 205 0.0 0.0 0.00 0.00 0.00 58 1011.2
20260904150834 28 219 0.0 0.0 0.00 0.00 0.00 63 1011.4
20260904150329 28 128 0.0 0.0 0.00 0.00 0.00 63 1011.3
20260904145826 28 193 0.0 0.0 0.00 0.00 0.00 63 1011.3
20260904145324 28 197 0.0 0.0 0.00 0.00 0.00 63 1011.5
20260904144819 28 163 0.0 0.0 0.00 0.00 0.00 62 1011.3
20260904144314 28 216 0.0 0.0 0.00 0.00 0.00 63 1011.2
20260904143809 28 223 0.0 0.0 0.00 0.00 0.00 63 1011.3
20260904143306 28 235 0.0 0.0 0.00 0.00 0.00 64 1011.1
20260904142802 28 271 0.0 0.0 0.00 0.00 0.00 65 1011.2
20260904142257 28 220 0.0 0.0 0.00 0.00 0.00 64 1011.2
20260904141752 28 200 0.0 0.0 0.00 0.00 0.00 64 1011.1
20260904141248 27 229 0.0 0.0 0.00 0.00 0.00 68 1011.1
20260904140743 27 176 0.0 0.0 0.00 0.00 0.00 68 1011.0
20260904140238 27 216 0.0 0.0 0.00 0.00 0.00 69 1011.1
20260904135737 27 92 0.0 0.0 0.00 0.00 0.00 69 1011.2
20260904135232 27 238 0.0 0.0 0.00 0.00 0.00 70 1010.9
20260904134728 27 186 0.0 0.0 0.00 0.00 0.00 70 1010.8
20260904134228 27 209 0.0 0.0 0.00 0.00 0.00 70 1010.8
20260904133722 27 161 0.0 0.0 0.00 0.00 0.00 70 1010.8
20260904133219 26 161 0.0 0.0 0.00 0.00 0.00 72 1010.8
20260904132718 27 230 0.0 0.0 0.00 0.00 0.00 71 1010.7
20260904132214 26 219 0.0 0.0 0.00 0.00 0.00 71 1010.8
20260904131713 26 212 0.0 0.0 0.00 0.00 0.00 73 1010.8
20260904131208 26 207 0.0 0.0 0.00 0.00 0.00 74 1010.8
20260904130703 26 303 0.0 0.0 0.00 0.00 0.00 74 1010.9
20260904130202 26 194 0.0 0.0 0.00 0.00 0.00 75 1010.9
20260904125659 26 232 0.0 0.0 0.00 0.00 0.00 76 1010.7
20260904125154 26 186 0.0 0.0 0.00 0.00 0.00 76 1010.7
20260904124649 26 217 0.0 0.0 0.00 0.00 0.00 77 1010.8
20260904124144 26 250 0.0 0.0 0.00 0.00 0.00 77 1010.6
20260904123638 26 217 0.0 0.0 0.00 0.00 0.00 78 1010.7
20260904123135 26 237 0.0 0.0 0.00 0.00 0.00 78 1010.7
20260904122629 25 173 0.0 0.0 0.00 0.00 0.00 79 1010.6
20260904122124 25 214 0.0 0.0 0.00 0.00 0.00 81 1010.7
20260904121619 25 137 0.0 0.0 0.00 0.00 0.00 82 1010.7
20260904121115 25 181 0.0 0.0 0.00 0.00 0.00 83 1010.7
20260904120611 25 204 0.0 0.0 0.00 0.00 0.00 84 1010.5
20260904120107 25 172 0.0 0.0 0.00 0.00 0.00 85 1010.4
20260904115602 25 224 0.0 0.0 0.00 0.00 0.00 86 1010.5
20260904115057 24 200 0.0 0.0 0.00 0.00 0.00 87 1010.6
20260904114556 24 170 0.0 0.0 0.00 0.00 0.00 88 1010.8
20260904114056 24 191 0.0 0.0 0.00 0.00 0.00 88 1010.7
20260904113551 24 138 0.0 0.0 0.00 0.00 0.00 89 1010.6